User: anonymous   Login
Location: Mentone
(34.5413°N, 85.5351°W)
Time: 02:08:23
(UTC-06:00)
Language:

Cosmos 2150 Rocket - Orbit

View from above orbital plane
View from above orbital plane
View from above satellite
View from above satellite

Ground track
Ground track

The orbit data is extracted from the following two-line orbital elements,

1 21419U 91041B   16037.85513723  .00000083  00000-0  38697-4 0  9991
2 21419  74.0406 127.2984 0040966 177.2909 322.2684 14.33783880289330
Epoch (UTC): 06 February 2016 20:31:23
Eccentricity: 0.0040966
inclination: 74.0406°
perigee height: 750 km
apogee height: 808 km
right ascension of ascending node: 127.2984°
argument of perigee: 177.2909°
revolutions per day: 14.33783880
mean anomaly at epoch: 322.2684°
orbit number at epoch: 28933

The dashed part of the orbit path shows where the satellite is in the earth's shadow,  

DLR